User: anonymous
Location: Unspecified
(0.0000°N, 0.0000°E)
Time: 10:36:11
(UTC+00:00)
Language:

PLEIADES 1B - Orbit

View from above orbital plane
View from above orbital plane
View from above satellite
View from above satellite

Ground track
Ground track

The orbit data is extracted from the following two-line orbital elements,

1 39019U 12068A   14108.16624449  .00000663  00000-0  15221-3 0  5938
2 39019 098.1635 183.8710 0001440 088.1143 272.0254 14.58591927 73203
Epoch (UTC): 18 April 2014 03:59:23
Eccentricity: 0.0001440
inclination: 98.1635°
perigee height: 697 km
apogee height: 699 km
right ascension of ascending node: 183.8710°
argument of perigee: 88.1143°
revolutions per day: 14.58591927
mean anomaly at epoch: 272.0254°
orbit number at epoch: 7320

The dashed part of the orbit path shows where the satellite is in the earth's shadow,  

DLR